Weather in Oklahoma City

United States     35°27′38″N   97°32′27″W
temp.,
°C
wind,
m/s
gust,
m/s
humid.,
%
clouds,
%
prec.,
mm/h
press.,
hPa
HPBL,
m
16 may, sun
sun1601:00+17s41296100 0.3 1015353
04:00+18s51496100 0.0 1014508
07:00+17s61396100 0.0 1014507
10:00+20s81185100 0.1 1015807
13:00+18s71195100 12.1 1014676
16:00+23s567241 1.7 10111110
19:00+23s2375100 3.5 1010582
22:00+18ssw338889 0.1 101145
17 may, mon
mon1701:00+18ssw41098100 2.2 1011445
04:00+18s3697100 0.1 1010270
07:00+17s239865 0.1 101189
10:00+20ne118694 0.1 1012438
13:00+25e226355 0.1 10111057
16:00+27se43569 0.0 10091521
19:00+26se456715 0.0 1009462
22:00+21ese5108399 0.3 1010227
18 may, tue
tue1801:00+20se61394100 2.1 1010348
04:00+16nw51096100 13.7 1012479
07:00+16e8994100 29.9 1011228
10:00+17e5886100 20.2 1011152
13:00+20sse71182100 21.2 1011460
16:00+23sse91175100 0.0 1009686
19:00+18sw71290100 1.0 1010825
22:00+16se71396100 8.3 1010410
19 may, wed
wed1901:00+17sse51492100 8.5 1009592
04:00+15ese4998100 0.4 1009342
07:00+16se51395100 1.5 1010500
10:00+20s81390100 0.3 1010782
13:00+23s101276100 0.3 10111143
16:00+22sse71082100 0.5 1011946
19:00+22se9138457 0.9 1010830
22:00+18se7149298 0.6 1012481
20 may, thu
thu2001:00+17sse61597100 0.6 1013556
04:00+17sse51393100 0.0 1014676
07:00+17sse61194100 0.0 1016633
10:00+18sse61089100 0.0 1017630
13:00+20sse81286100 0.0 1018819
16:00+20se71183100 0.2 1016401
19:00+20sse71390100 0.2 1016527
22:00+19ssw51298100 3.8 1018499